Vertical_Velocity
4 4 3 3 3 2 2 1 1 1 1 1 0 -1 0 -0 -2 -3 -2 -1 -0 -1
3 4 3 4 4 2 1 1 0 0 1 -0 -0 0 0 -0 -2 0 1 -1 -2 -1
4 4 2 1 1 1 1 1 0 0 1 1 0 0 -1 -2 1 1 -1 -1 0 -3
4 4 4 4 3 2 1 1 1 1 1 1 -0 -1 -1 1 1 -0 -2 -3 -1 -3
-2 1 3 4 4 4 3 3 2 1 1 -1 -1 -4 1 0 -0 -1 -2 -1 -1 -2
-0 -2 0 2 3 3 3 1 1 -0 -1 -1 -5 1 2 -1 -1 -1 -1 -2 -2 -3
5 3 2 1 1 3 1 2 1 -0 -1 -1 0 1 0 0 1 -2 -3 -1 -3 -1
4 1 2 1 0 -1 -1 0 -1 -1 -1 -1 3 1 -0 1 0 1 1 0 -0 -1
0 -1 4 3 3 2 2 2 -1 -4 3 -1 2 2 0 -1 -0 -4 -2 -0 -3 -2
8 5 4 4 2 2 2 1 -1 -0 3 -0 1 -0 -1 -2 -0 -3 -4 -4 -4 -2
4 2 1 2 0 5 -1 0 -3 2 -0 -0 -0 -1 -2 -2 -3 -2 1 -5 -0 -0
2 3 3 2 -1 -2 -3 0 3 2 2 0 -2 -1 -1 -0 0 3 -3 -1 2 1
4 5 5 4 -0 -5 -1 2 0 -0 1 0 1 1 3 -2 -6 -1 2 4 1 -3
3 1 -1 -2 2 2 -3 1 0 -2 3 -1 2 -0 -3 0 -4 3 -2 -4 1 1
Height
3021 3023 3025 3027 3029 3030 3031 3032 3033 3033 3032 3032 3032 3032 3031 3030 3028 3026 3023 3020 3015 3012
3012 3014 3017 3018 3020 3022 3023 3024 3024 3025 3025 3025 3025 3024 3023 3022 3020 3017 3012 3008 3005 3003
3004 3007 3009 3011 3013 3014 3016 3017 3017 3018 3018 3017 3017 3016 3015 3013 3010 3006 3002 3000 2998 2995
2996 2998 3001 3003 3005 3007 3008 3009 3009 3010 3010 3009 3009 3008 3006 3003 3000 2997 2994 2990 2989 2986
2988 2990 2993 2995 2996 2998 2999 3000 3001 3001 3001 3001 3000 2997 2996 2994 2991 2988 2986 2983 2979 2975
2981 2983 2985 2987 2988 2989 2990 2991 2991 2992 2992 2991 2989 2990 2988 2985 2982 2980 2977 2974 2970 2966
2973 2975 2977 2978 2978 2978 2981 2983 2983 2984 2984 2983 2983 2982 2979 2976 2974 2972 2969 2965 2961 2957
2963 2963 2964 2968 2974 2977 2978 2978 2978 2977 2976 2976 2976 2973 2970 2968 2966 2964 2962 2958 2953 2948
2955 2956 2964 2967 2969 2970 2971 2970 2969 2969 2968 2967 2967 2965 2963 2961 2960 2957 2952 2948 2943 2938
2953 2957 2959 2961 2963 2963 2962 2962 2962 2961 2962 2960 2959 2958 2956 2953 2950 2947 2943 2937 2932 2928
2949 2951 2953 2954 2955 2955 2955 2954 2955 2956 2956 2953 2952 2952 2949 2946 2943 2939 2934 2930 2925 2919
2944 2946 2948 2948 2948 2948 2948 2950 2951 2950 2949 2947 2946 2945 2942 2938 2936 2932 2927 2923 2919 2913
2939 2940 2941 2942 2942 2943 2945 2946 2944 2942 2942 2941 2939 2937 2935 2930 2927 2923 2920 2917 2912 2905
2935 2935 2935 2936 2938 2940 2940 2940 2938 2937 2937 2936 2934 2930 2927 2924 2919 2915 2911 2907 2902 2897